Overview Statistics Trail Chart Weather Telemetry Raw packets
 

This is the latest recevied weather packets stored in our database for station/object WA1NHP. If no packets are shown the sender has not sent any weather packets the latest 10 day(s).

<< 43 44 45 46 47 48 49 >>
Time Temp. Humidity Pressure Rain* Wind** Luminosity Snow
1787962444 18.33° C 84% 1023.9 hPa 0 mm - 0 W/m² -
1787961844 18.89° C 85% 1023.9 hPa 0 mm - 0 W/m² -
1787961244 18.89° C 84% 1023.9 hPa 0 mm - 0 W/m² -
1787960644 19.44° C 82% 1023.9 hPa 0 mm - 0 W/m² -
1787960044 19.44° C 82% 1023.9 hPa 0 mm - 0 W/m² -
1787959444 20° C 82% 1023.9 hPa 0 mm - 0 W/m² -
1787958851 20.56° C 80% 1023.9 hPa 0 mm - 14 W/m² -
1787958244 20.56° C 78% 1023.9 hPa 0 mm - 19 W/m² -
1787957643 21.11° C 77% 1023.9 hPa 0 mm - 19 W/m² -
1787957044 21.67° C 76% 1023.9 hPa 0 mm - 16 W/m² -
1787956443 21.67° C 76% 1023.9 hPa 0 mm - 19 W/m² -
1787955844 22.22° C 76% 1023.9 hPa 0 mm - 26 W/m² -
1787955243 22.22° C 78% 1023.9 hPa 0 mm - 26 W/m² -
1787954644 22.78° C 76% 1023.9 hPa 0 mm - 32 W/m² -
1787954044 22.78° C 75% 1023.9 hPa 0 mm - 42 W/m² -
1787953445 23.33° C 76% 1023.9 hPa 0 mm - 51 W/m² -
1787952843 23.89° C 70% 1023.9 hPa 0 mm - 56 W/m² -
1787952243 23.89° C 73% 1023.9 hPa 0 mm - 63 W/m² -
1787951643 23.89° C 68% 1023.9 hPa 0 mm - 65 W/m² -
1787951044 24.44° C 71% 1023.9 hPa 0 mm - 67 W/m² -
1787950444 24.44° C 69% 1023.9 hPa 0 mm - 111 W/m² -
1787949844 24.44° C 70% 1023.9 hPa 0 mm - 62 W/m² -
1787949244 25° C 70% 1023.9 hPa 0 mm - 93 W/m² -
1787948645 25° C 68% 1023.9 hPa 0 mm - 332 W/m² -
1787948044 25.56° C 68% 1023.9 hPa 0 mm - 494 W/m² -

* Rain latest hour (hover to see other rain measurements)
** Current wind speed in m/s (hover to see current wind gust speed)